Location: Lugano
(46.0000°N, 8.9670°E)
Time: 01:56:52
(UTC+01:00)

UKube-1 - Visible Passes

Search period start: 14 February 2026 00:00
Search period end: 24 February 2026 00:00
Orbit: 532 x 533 km, 98.4° (Epoch: 11 February)

Date Brightness Start Highest point End Pass type
(mag) Time Alt. Az. Time Alt. Az. Time Alt. Az.
14 Feb ? 04:22:10 10° ENE 04:23:13 11° E 04:24:16 10° ESE visible
14 Feb ? 05:54:05 10° N 05:57:55 64° WNW 06:01:44 10° SSW visible
15 Feb ? 05:44:19 10° NNE 05:48:12 85° WNW 05:52:03 10° SSW visible
16 Feb ? 05:34:33 10° NNE 05:38:26 73° ESE 05:42:16 10° S visible
17 Feb ? 05:24:49 10° NNE 05:28:38 55° E 05:32:24 10° S visible
18 Feb ? 05:15:07 10° NNE 05:18:48 41° E 05:22:26 10° S visible
18 Feb ? 06:50:09 10° NNW 06:52:47 18° WNW 06:55:25 10° WSW visible
19 Feb ? 05:05:26 10° NNE 05:08:55 31° E 05:12:23 10° SSE visible
19 Feb ? 06:40:01 10° NNW 06:43:03 22° WNW 06:46:03 10° WSW visible
20 Feb ? 04:55:48 10° NE 04:59:00 24° E 05:02:12 10° SSE visible
20 Feb ? 06:29:57 10° N 06:33:16 28° WNW 06:36:34 10° SW visible
21 Feb ? 04:46:15 10° NE 04:49:04 19° E 04:51:52 10° SE visible
21 Feb ? 06:19:55 10° N 06:23:28 36° WNW 06:26:59 10° SW visible
22 Feb ? 04:36:50 10° NE 04:39:05 15° E 04:41:19 10° SE visible
22 Feb ? 06:09:54 10° N 06:13:37 46° WNW 06:17:18 10° SW visible
23 Feb ? 04:27:46 10° ENE 04:29:04 11° E 04:30:22 10° ESE visible
23 Feb ? 05:59:55 10° N 06:03:44 62° WNW 06:07:32 10° SSW visible
